Weather History for Cleveland Burke, OH

Change the Weather History Date:

Saturday, January 19, 2013

  Actual Average Record
Temperature  
Mean Temperature 44 °F -  
Max Temperature 51 °F 30 °F 53 °F (2006)
Min Temperature 37 °F 20 °F 1 °F (1997)
Degree Days  
Heating Degree Days 21    
Moisture  
Dew Point 24 °F    
Average Humidity 42    
Maximum Humidity 48    
Minimum Humidity 36    
Precipitation  
Precipitation 0.00 in - - ()
Sea Level Pressure  
Sea Level Pressure 29.92 in    
Wind  
Wind Speed 19 mph (SSW)    
Max Wind Speed 24 mph    
Max Gust Speed 38 mph    
Visibility 10 miles    
Events      
Averages and records for this station are not official NWS values.
T = Trace of Precipitation, MM = Missing Value Source: NWS Daily Summary

Daily Weather History Graph

Daily Weather History Graph

Search for Another Location

Airport:

Trip Planner

Search our weather history database for the weather conditions in past years. The results will help you decide how hot, cold, wet, or windy it might be!

Date:

Astronomy

Jan. 19, 2013 Rise Set
Actual Time 7:48 AM EST 5:26 PM EST
Civil Twilight 7:18 AM EST 5:57 PM EST
Nautical Twilight 6:44 AM EST 6:31 PM EST
Astronomical Twilight 6:11 AM EST 7:04 PM EST
Moon 11:53 AM EST (1/19) 1:20 AM EST (1/19)
Length of Visible Light 10h 38m
Length of Day
9h 38m
First Quarter, 57% of the Moon is Illuminated
Jan 19
First Quarter
Jan 26
Full
Feb 3
Last Quarter
Feb 10
New
Feb 17
First Quarter

Hourly Weather History & Observations

Time (EST) Temp. Windchill Dew Point Humidity Pressure Visibility Wind Dir Wind Speed Gust Speed Precip Events Conditions
12:53 AM 37.9 °F 27.9 °F 19.0 °F 47% 30.07 in 10.0 mi South 19.6 mph 29.9 mph N/A   Clear
1:53 AM 37.9 °F 28.9 °F 19.9 °F 48% 30.08 in 10.0 mi South 16.1 mph 29.9 mph N/A   Clear
2:53 AM 37.9 °F 28.5 °F 19.9 °F 48% 30.08 in 10.0 mi South 17.3 mph 24.2 mph N/A   Clear
3:53 AM 37.9 °F 28.9 °F 19.9 °F 48% 30.06 in 10.0 mi South 16.1 mph 23.0 mph N/A   Clear
4:53 AM 41.0 °F 31.1 °F 19.9 °F 43% 30.04 in 10.0 mi SSW 23.0 mph 31.1 mph N/A   Clear
5:53 AM 41.0 °F 32.8 °F 19.9 °F 43% 30.05 in 10.0 mi SSW 16.1 mph 31.1 mph N/A   Clear
6:53 AM 42.1 °F 33.3 °F 19.9 °F 41% 30.04 in 10.0 mi SSW 19.6 mph 33.4 mph N/A   Clear
7:53 AM 41.0 °F 30.9 °F 21.0 °F 45% 30.04 in 10.0 mi SSW 24.2 mph 31.1 mph N/A   Clear
8:53 AM 42.1 °F 33.9 °F 21.9 °F 45% 30.04 in 10.0 mi SSW 17.3 mph 25.3 mph N/A   Clear
9:53 AM 45.0 °F 36.9 °F 24.1 °F 44% 30.05 in 10.0 mi SSW 20.7 mph 27.6 mph N/A   Clear
10:53 AM 46.0 °F 38.0 °F 25.0 °F 44% 30.04 in 10.0 mi SSW 21.9 mph 29.9 mph N/A   Clear
11:53 AM 48.0 °F - 25.0 °F 41% 29.99 in 10.0 mi SW 21.9 mph 35.7 mph N/A   Clear
12:53 PM 51.1 °F - 27.0 °F 39% 29.94 in 10.0 mi SW 18.4 mph 27.6 mph N/A   Clear
1:53 PM 51.1 °F - 27.0 °F 39% 29.90 in 10.0 mi SSW 15.0 mph 26.5 mph N/A   Clear
2:53 PM 51.1 °F - 27.0 °F 39% 29.87 in 10.0 mi South 23.0 mph 31.1 mph N/A   Clear
3:53 PM 51.1 °F - 27.0 °F 39% 29.83 in 10.0 mi SSW 21.9 mph 35.7 mph N/A   Clear
4:53 PM 51.1 °F - 27.0 °F 39% 29.80 in 10.0 mi SSW 15.0 mph 29.9 mph N/A   Clear
5:53 PM 50.0 °F - 25.0 °F 38% 29.81 in 10.0 mi SW 17.3 mph 23.0 mph N/A   Overcast
6:53 PM 48.9 °F - 25.0 °F 39% 29.80 in 10.0 mi SSW 16.1 mph 25.3 mph N/A   Clear
7:53 PM 50.0 °F - 24.1 °F 36% 29.78 in 10.0 mi SSW 19.6 mph 29.9 mph N/A   Partly Cloudy
8:53 PM 48.9 °F - 25.0 °F 39% 29.76 in 10.0 mi SSW 18.4 mph 26.5 mph N/A   Clear
9:53 PM 48.0 °F - 25.0 °F 41% 29.73 in 10.0 mi SSW 19.6 mph 28.8 mph N/A   Clear
10:53 PM 48.9 °F - 27.0 °F 43% 29.71 in 10.0 mi SW 21.9 mph 38.0 mph N/A   Overcast
11:53 PM 48.0 °F - 28.0 °F 46% 29.68 in 10.0 mi SW 24.2 mph 34.5 mph N/A   Partly Cloudy